+ View the NASA Portal
+ Center for Near-Earth Object Studies
IMPORTANT:
The SSD Announcement email list is now available. Major changes are coming in the near future, including possible hostname and/or URL changes. To be notified of such changes, subscribe to this email list.
Please visit
this page
for more details.
Don't show this message again
JPL Small-Body Database Browser
Search:
[
help
]
146096 (2000 OY15)
Classification:
Main-belt Asteroid
SPK-ID:
2146096
[
Ephemeris
|
Orbit Diagram
|
Orbital Elements
|
Mission Design
|
Physical Parameters
|
Discovery Circumstances
|
Close-Approach Data
]
[ show orbit diagram ]
Orbital Elements at Epoch 2458600.5 (2019-Apr-27.0) TDB
Reference:
JPL 9
(heliocentric ecliptic J2000)
Element
Value
Uncertainty (1-sigma)
Units
e
.3579345090261625
7.7809e-08
a
3.072592709051111
3.2891e-08
au
q
1.972805746299535
2.4166e-07
au
i
3.091622261488313
9.6683e-06
deg
node
149.8455955210447
0.0001461
deg
peri
197.6377184693986
0.00014669
deg
M
148.1936948808588
1.4207e-05
deg
t
p
2457790.689980270682
(2017-Feb-06.18998027)
6.7652e-05
TDB
period
1967.233540785477
5.39
3.1588e-05
8.648e-08
d
yr
n
.1829980998881603
2.9384e-09
deg/d
Q
4.172379671802688
4.4664e-08
au
Orbit Determination Parameters
# obs. used (total)
186
data-arc span
8516 days (23.32 yr)
first obs. used
1995-10-17
last obs. used
2019-02-09
planetary ephem.
DE431
SB-pert. ephem.
SB431-N16
condition code
0
norm. resid. RMS
.74363
source
ORB
producer
Otto Matic
solution date
2019-Jul-13 13:45:44
Additional Information
Earth MOID
= .965497 au
Jupiter MOID
= 1.25678 au
T_jup
= 3.126
[ show covariance matrix ]
[
Ephemeris
|
Orbit Diagram
|
Orbital Elements
|
Mission Design
|
Physical Parameters
|
Discovery Circumstances
|
Close-Approach Data
]
Physical Parameter Table
Parameter
Symbol
Value
Units
Sigma
Reference
Notes
absolute magnitude
H
15.6
n/a
MPO432917
146096 (2000 OY15)
Discovered 2000-Jul-23 by LINEAR at Socorro
Reference:
20070106/Numbers.arc
Last Updated:
2007-01-09
[ show close-approach data ]
Alternate Designations
2000 OY15
= 2005 MA4
[
Ephemeris
|
Orbit Diagram
|
Orbital Elements
|
Mission Design
|
Physical Parameters
|
Discovery Circumstances
|
Close-Approach Data
]
2019-Dec-07 16:59 UT
(server date/time)
Site Manager:
Ryan S. Park
Webmaster
:
Alan B. Chamberlin